Rochester, NY

4:25 AM EDT on October 22, 2019 (GMT -0400)
Greater Rochester International

Weather History for KROC - May, 2019

Change the Weather History Date:

Tuesday, May 14, 2019

  Actual Average Record
Temperature  
Mean Temperature 46 °F 56 °F  
Max Temperature 51 °F 67 °F 94 °F (1974)
Min Temperature 40 °F 46 °F 31 °F (1878)
Degree Days  
Heating Degree Days 19 9  
Month to date heating degree days 179 157  
Since 1 July heating degree days 6303 6460  
Cooling Degree Days 0 1  
Month to date cooling degree days 0 5  
Year to date cooling degree days 0 9  
Moisture  
Dew Point 41 °F    
Average Humidity 80    
Maximum Humidity 92    
Minimum Humidity 68    
Precipitation  
Precipitation 0.10 in 0.09 in 1.10 in (1904)
Month to date precipitation 2.08 1.25  
Year to date precipitation 12.01 10.84  
Snow  
Snow 0.00 in 0.00 in 0.00 in ()
Month to date snowfall 0.0 0.3  
Since 1 July snowfall 97.1 99.4  
Snow Depth 0.00 in    
Sea Level Pressure  
Sea Level Pressure 29.87 in    
Wind  
Wind Speed 9 mph (NW)    
Max Wind Speed 18 mph    
Max Gust Speed 23 mph    
Visibility 7 miles    
Events Rain    
T = Trace of Precipitation, MM = Missing Value Source: NWS Daily Summary

Daily Weather History Graph

Daily Weather History Graph

Search for Another Location

Airport or City:

Astronomy

May. 14, 2019 Rise Set
Actual Time 5:48 AM EDT 8:26 PM EDT
Civil Twilight 5:15 AM EDT 8:58 PM EDT
Nautical Twilight 4:35 AM EDT 9:39 PM EDT
Astronomical Twilight 3:48 AM EDT 10:26 PM EDT
Moon 3:35 PM EDT (5/14) 3:51 AM EDT (5/14)
Length of Visible Light 15h 43m
Length of Day
14h 37m
Waxing Gibbous, 79% of the Moon is Illuminated
May 14
Waxing Gibbous
May 18
Full
May 26
Last Quarter
Jun 3
New
Jun 10
First Quarter

Hourly Weather History & Observations

Time (EDT) Temp. Windchill Dew Point Humidity Pressure Visibility Wind Dir Wind Speed Gust Speed Precip Events Conditions
12:54 AM 46.0 °F 41.0 °F 42.1 °F 86% 29.79 in 7.0 mi WSW 10.4 mph - N/A   Overcast
1:54 AM 46.0 °F 41.4 °F 42.1 °F 86% 29.78 in 6.0 mi WSW 9.2 mph - 0.00 in   Light Drizzle
2:45 AM 46.0 °F 40.6 °F 42.1 °F 86% 29.75 in 5.0 mi West 11.5 mph - 0.00 in   Light Drizzle
2:54 AM 46.0 °F 41.9 °F 42.1 °F 86% 29.76 in 5.0 mi West 8.1 mph 17.3 mph 0.00 in   Light Drizzle
3:54 AM 45.0 °F 39.7 °F 42.1 °F 90% 29.76 in 2.0 mi NW 10.4 mph - 0.00 in   Drizzle
4:29 AM 43.0 °F 37.7 °F 41.0 °F 93% 29.75 in 3.0 mi WNW 9.2 mph - 0.00 in   Light Drizzle
4:52 AM 42.8 °F 37.5 °F 39.2 °F 87% 29.75 in 2.5 mi NW 9.2 mph - 0.00 in   Light Drizzle
4:54 AM 43.0 °F 36.8 °F 39.9 °F 89% 29.77 in 2.5 mi WNW 11.5 mph - 0.00 in   Light Drizzle
5:31 AM 41.0 °F 33.5 °F 37.9 °F 89% 29.77 in 1.2 mi NNW 13.8 mph - 0.00 in   Light Drizzle
5:54 AM 39.9 °F 33.4 °F 37.9 °F 93% 29.80 in 1.0 mi NNW 10.4 mph - 0.00 in   Light Drizzle
6:54 AM 39.9 °F 32.1 °F 37.9 °F 93% 29.83 in 1.2 mi North 13.8 mph 23.0 mph 0.01 in Rain Light Rain
7:54 AM 41.0 °F 32.5 °F 37.9 °F 89% 29.86 in 2.5 mi NNE 17.3 mph 21.9 mph 0.03 in Rain Light Rain
8:05 AM 41.0 °F 32.8 °F 37.9 °F 89% 29.85 in 6.0 mi NNE 16.1 mph - 0.00 in Rain Light Rain
8:52 AM 41.0 °F 35.2 °F 37.4 °F 87% 29.86 in 10.0 mi North 9.2 mph - 0.03 in Rain Light Rain
8:54 AM 42.1 °F 36.6 °F 37.9 °F 85% 29.88 in 10.0 mi North 9.2 mph - 0.03 in Rain Light Rain
9:54 AM 43.0 °F 37.7 °F 39.0 °F 86% 29.89 in 5.0 mi North 9.2 mph - 0.01 in Rain Light Rain
10:06 AM 43.0 °F 36.8 °F 39.0 °F 86% 29.88 in 2.0 mi North 11.5 mph - 0.00 in Rain Light Rain
10:41 AM 43.0 °F 36.8 °F 39.9 °F 89% 29.88 in 3.0 mi NNW 11.5 mph - 0.00 in Rain Light Rain
10:54 AM 44.1 °F 37.7 °F 39.9 °F 85% 29.91 in 10.0 mi NNW 12.7 mph - 0.01 in Rain Light Rain
11:54 AM 45.0 °F 38.5 °F 39.9 °F 82% 29.92 in 10.0 mi NNW 13.8 mph - 0.00 in Rain Light Rain
12:27 PM 46.0 °F 41.0 °F 41.0 °F 83% 29.90 in 10.0 mi North 10.4 mph - 0.00 in   Overcast
12:54 PM 46.9 °F - 39.9 °F 77% 29.92 in 10.0 mi NNW 10.4 mph - 0.00 in Rain Light Rain
1:54 PM 48.0 °F - 39.9 °F 74% 29.92 in 10.0 mi North 12.7 mph - 0.00 in Rain Light Rain
2:54 PM 48.0 °F - 41.0 °F 77% 29.93 in 10.0 mi North 12.7 mph - 0.00 in Rain Light Rain
3:54 PM 50.0 °F - 42.1 °F 74% 29.93 in 10.0 mi NW 9.2 mph - 0.00 in   Overcast
4:54 PM 50.0 °F - 41.0 °F 71% 29.93 in 10.0 mi NW 9.2 mph - 0.00 in Rain Light Rain
5:44 PM 50.0 °F - 42.1 °F 74% 29.92 in 10.0 mi NW 6.9 mph - 0.00 in Rain Light Rain
5:54 PM 50.0 °F - 42.1 °F 74% 29.94 in 10.0 mi NW 6.9 mph - 0.00 in Rain Light Rain
6:54 PM 51.1 °F - 41.0 °F 68% 29.93 in 10.0 mi NW 3.5 mph - 0.00 in Rain Light Rain
7:54 PM 50.0 °F - 42.1 °F 74% 29.94 in 10.0 mi WNW 4.6 mph - 0.00 in   Overcast
8:26 PM 50.0 °F - 43.0 °F 77% 29.93 in 10.0 mi WNW 5.8 mph - 0.00 in Rain Light Rain
8:54 PM 48.9 °F - 45.0 °F 86% 29.95 in 10.0 mi West 4.6 mph - 0.01 in Rain Light Rain
9:25 PM 48.0 °F - 44.1 °F 86% 29.93 in 10.0 mi Calm Calm - 0.00 in Rain Light Rain
9:54 PM 46.9 °F - 44.1 °F 90% 29.95 in 10.0 mi WSW 5.8 mph - 0.00 in   Mostly Cloudy
10:54 PM 46.0 °F 43.9 °F 43.0 °F 89% 29.96 in 10.0 mi WSW 4.6 mph - N/A   Overcast
11:54 PM 45.0 °F 42.6 °F 42.1 °F 90% 29.95 in 10.0 mi West 4.6 mph - N/A   Partly Cloudy